UAE707 FSIA-FMMI

Flight info

Callsign UAE707
Flight time 2h 42m
Altitude 40000
Route IMPOX1A IMPOX DCT NORSI/N0483F390 UL441 MIROV/N0482F400 UL441 GATLA DCT TAPAL TAPAL1D
Aircraft A359/H-SDE2E3GHIJ3J4J5LM1ORWXY/LB1D1

Departure

Time 2026-04-25 13:14
Airport Seychelles International Airport (FSIA)

Arrival

Time 2026-04-25 15:56
Airport Ivato International Airport (FMMI)
Time Latitude Longitude Altitude Speed Heading
2026-04-25 12:21 -4.67076 55.51229 27 ft 0 kts 216°
2026-04-25 13:02 -4.67071 55.51233 27 ft 4 kts 215°
2026-04-25 13:03 -4.67048 55.51247 25 ft 4 kts 214°
2026-04-25 13:03 -4.67029 55.51260 25 ft 4 kts 190°
2026-04-25 13:03 -4.67008 55.51255 23 ft 4 kts 126°
2026-04-25 13:03 -4.66996 55.51231 25 ft 4 kts 111°
2026-04-25 13:04 -4.66985 55.51207 25 ft 3 kts 123°
2026-04-25 13:04 -4.66983 55.51203 26 ft 0 kts 126°
2026-04-25 13:06 -4.66983 55.51204 26 ft 1 kts 127°
2026-04-25 13:06 -4.67002 55.51228 26 ft 8 kts 127°
2026-04-25 13:07 -4.67016 55.51267 25 ft 0 kts 97°
2026-04-25 13:07 -4.67015 55.51272 17 ft 2 kts 84°
2026-04-25 13:07 -4.66993 55.51299 27 ft 7 kts 41°
2026-04-25 13:07 -4.66946 55.51335 27 ft 10 kts 36°
2026-04-25 13:08 -4.66909 55.51385 28 ft 8 kts 81°
2026-04-25 13:08 -4.66937 55.51451 28 ft 15 kts 124°
2026-04-25 13:08 -4.67000 55.51544 28 ft 17 kts 124°
2026-04-25 13:08 -4.67069 55.51645 28 ft 19 kts 124°
2026-04-25 13:09 -4.67147 55.51758 28 ft 20 kts 124°
2026-04-25 13:09 -4.67229 55.51878 29 ft 21 kts 124°
2026-04-25 13:09 -4.67316 55.52005 28 ft 23 kts 124°
2026-04-25 13:09 -4.67408 55.52140 29 ft 24 kts 124°
2026-04-25 13:10 -4.67492 55.52260 28 ft 18 kts 126°
2026-04-25 13:10 -4.67568 55.52367 28 ft 20 kts 124°
2026-04-25 13:10 -4.67650 55.52485 27 ft 22 kts 125°
2026-04-25 13:10 -4.67740 55.52614 28 ft 24 kts 124°
2026-04-25 13:11 -4.67834 55.52752 27 ft 24 kts 124°
2026-04-25 13:11 -4.67930 55.52896 27 ft 25 kts 123°
2026-04-25 13:11 -4.68005 55.53008 29 ft 14 kts 124°
2026-04-25 13:11 -4.68061 55.53091 29 ft 15 kts 124°
2026-04-25 13:12 -4.68141 55.53153 27 ft 11 kts 162°
2026-04-25 13:12 -4.68205 55.53167 27 ft 10 kts 168°
2026-04-25 13:12 -4.68265 55.53202 27 ft 10 kts 113°
2026-04-25 13:12 -4.68254 55.53241 27 ft 9 kts 52°
2026-04-25 13:13 -4.68176 55.53248 28 ft 10 kts 320°
2026-04-25 13:13 -4.68080 55.53115 28 ft 48 kts 304°
2026-04-25 13:13 -4.67759 55.52646 26 ft 113 kts 304°
2026-04-25 13:13 -4.67201 55.51838 31 ft 167 kts 304°
2026-04-25 13:14 -4.66517 55.50872 668 ft 164 kts 306°
2026-04-25 13:14 -4.65812 55.50016 1475 ft 158 kts 314°
2026-04-25 13:14 -4.64982 55.49270 2063 ft 162 kts 320°
2026-04-25 13:14 -4.63924 55.48743 2420 ft 181 kts 344°
2026-04-25 13:15 -4.62603 55.48497 2664 ft 206 kts 351°
2026-04-25 13:15 -4.61102 55.48292 2881 ft 231 kts 351°
2026-04-25 13:15 -4.59435 55.48055 3093 ft 256 kts 351°
2026-04-25 13:15 -4.57613 55.47781 3613 ft 268 kts 351°
2026-04-25 13:16 -4.55765 55.47459 4303 ft 272 kts 345°
2026-04-25 13:16 -4.54109 55.46572 4972 ft 273 kts 314°
2026-04-25 13:16 -4.53203 55.44957 5667 ft 272 kts 281°
2026-04-25 13:16 -4.53135 55.43061 6362 ft 274 kts 265°
2026-04-25 13:17 -4.53292 55.41133 7005 ft 279 kts 264°
2026-04-25 13:17 -4.53452 55.39182 7707 ft 283 kts 265°
2026-04-25 13:17 -4.53595 55.37203 8426 ft 287 kts 266°
2026-04-25 13:17 -4.53725 55.35198 9148 ft 291 kts 266°
2026-04-25 13:18 -4.53990 55.33179 9857 ft 295 kts 255°
2026-04-25 13:18 -4.54926 55.31320 10267 ft 310 kts 229°
2026-04-25 13:18 -4.56706 55.30027 10491 ft 328 kts 201°
2026-04-25 13:18 -4.58999 55.29594 10763 ft 344 kts 182°
2026-04-25 13:19 -4.61428 55.29527 11202 ft 353 kts 180°
2026-04-25 13:19 -4.63905 55.29482 11776 ft 358 kts 181°
2026-04-25 13:19 -4.66410 55.29417 12379 ft 362 kts 181°
2026-04-25 13:19 -4.67228 55.29393 12574 ft 364 kts 181°
2026-04-25 13:20 -4.71499 55.29249 13597 ft 369 kts 181°
2026-04-25 13:20 -4.74081 55.29155 14136 ft 373 kts 181°
2026-04-25 13:20 -4.76684 55.29058 14675 ft 376 kts 181°
2026-04-25 13:20 -4.79307 55.28959 15195 ft 379 kts 181°
2026-04-25 13:21 -4.81952 55.28858 15714 ft 382 kts 181°
2026-04-25 13:21 -4.84614 55.28756 16232 ft 384 kts 181°
2026-04-25 13:21 -4.87268 55.28654 16734 ft 387 kts 181°
2026-04-25 13:21 -4.89976 55.28550 17224 ft 391 kts 181°
2026-04-25 13:22 -4.92703 55.28445 17740 ft 394 kts 181°
2026-04-25 13:22 -4.95448 55.28339 18228 ft 396 kts 181°
2026-04-25 13:22 -4.98226 55.28232 18658 ft 399 kts 181°
2026-04-25 13:23 -5.03799 55.28018 19539 ft 404 kts 181°
2026-04-25 13:23 -5.06620 55.27909 19978 ft 407 kts 181°
2026-04-25 13:23 -5.09453 55.27688 20397 ft 410 kts 188°
2026-04-25 13:23 -5.12242 55.27012 20813 ft 414 kts 199°
2026-04-25 13:24 -5.14903 55.25882 21262 ft 417 kts 205°
2026-04-25 13:24 -5.17500 55.24573 21731 ft 419 kts 207°
2026-04-25 13:24 -5.20078 55.23174 22175 ft 421 kts 208°
2026-04-25 13:24 -5.22629 55.21753 22601 ft 424 kts 209°
2026-04-25 13:25 -5.25214 55.20312 23052 ft 426 kts 208°
2026-04-25 13:25 -5.27820 55.18873 23472 ft 429 kts 208°
2026-04-25 13:25 -5.30448 55.17437 23801 ft 431 kts 208°
2026-04-25 13:25 -5.33096 55.16002 24159 ft 434 kts 208°
2026-04-25 13:26 -5.35762 55.14565 24512 ft 436 kts 208°
2026-04-25 13:26 -5.38444 55.13123 24892 ft 438 kts 208°
2026-04-25 13:26 -5.41139 55.11675 25304 ft 441 kts 209°
2026-04-25 13:26 -5.43849 55.10219 25719 ft 443 kts 209°
2026-04-25 13:27 -5.46572 55.08755 26142 ft 445 kts 208°
2026-04-25 13:27 -5.49312 55.07281 26563 ft 448 kts 209°
2026-04-25 13:27 -5.52065 55.05800 26981 ft 450 kts 209°
2026-04-25 13:27 -5.54833 55.04310 27393 ft 453 kts 209°
2026-04-25 13:28 -5.57618 55.02810 27806 ft 456 kts 209°
2026-04-25 13:28 -5.58563 55.02301 27945 ft 457 kts 209°
2026-04-25 13:28 -5.63239 54.99784 28604 ft 462 kts 209°
2026-04-25 13:28 -5.66081 54.98253 28968 ft 465 kts 209°
2026-04-25 13:29 -5.68939 54.96714 29352 ft 468 kts 209°
2026-04-25 13:29 -5.71813 54.95166 29738 ft 470 kts 210°
2026-04-25 13:29 -5.74704 54.93608 30075 ft 473 kts 210°
2026-04-25 13:30 -5.80537 54.90465 30666 ft 479 kts 210°
2026-04-25 13:30 -5.83479 54.88880 30956 ft 481 kts 210°
2026-04-25 13:30 -5.86435 54.87286 31244 ft 484 kts 210°
2026-04-25 13:31 -5.92398 54.84072 31824 ft 489 kts 210°
2026-04-25 13:31 -5.95399 54.82454 32102 ft 491 kts 210°
2026-04-25 13:31 -5.98416 54.80827 32363 ft 493 kts 210°
2026-04-25 13:31 -6.01452 54.79190 32622 ft 496 kts 210°
2026-04-25 13:32 -6.04497 54.77548 32872 ft 498 kts 210°
2026-04-25 13:32 -6.07557 54.75897 33127 ft 500 kts 210°
2026-04-25 13:32 -6.10630 54.74239 33359 ft 503 kts 210°
2026-04-25 13:32 -6.13718 54.72573 33580 ft 505 kts 210°
2026-04-25 13:33 -6.16817 54.70901 33819 ft 507 kts 210°
2026-04-25 13:33 -6.19930 54.69221 34016 ft 509 kts 210°
2026-04-25 13:33 -6.23054 54.67535 34228 ft 510 kts 210°
2026-04-25 13:34 -6.29312 54.64157 34708 ft 511 kts 210°
2026-04-25 13:34 -6.32437 54.62470 34985 ft 510 kts 210°
2026-04-25 13:34 -6.35562 54.60782 35264 ft 509 kts 210°
2026-04-25 13:34 -6.38682 54.59097 35531 ft 508 kts 210°
2026-04-25 13:35 -6.41793 54.57416 35793 ft 508 kts 210°
2026-04-25 13:35 -6.44905 54.55735 36050 ft 507 kts 210°
2026-04-25 13:35 -6.47973 54.54077 36298 ft 507 kts 210°
2026-04-25 13:35 -6.51081 54.52397 36540 ft 507 kts 210°
2026-04-25 13:36 -6.54184 54.50720 36785 ft 507 kts 210°
2026-04-25 13:36 -6.57289 54.49041 36993 ft 507 kts 210°
2026-04-25 13:36 -6.60397 54.47360 37168 ft 508 kts 210°
2026-04-25 13:36 -6.63506 54.45679 37392 ft 508 kts 210°
2026-04-25 13:37 -6.65607 54.44542 37534 ft 507 kts 210°
2026-04-25 13:37 -6.68676 54.42882 37770 ft 507 kts 210°
2026-04-25 13:37 -6.71781 54.41203 37966 ft 507 kts 210°
2026-04-25 13:37 -6.74884 54.39524 38171 ft 507 kts 210°
2026-04-25 13:38 -6.77991 54.37843 38354 ft 507 kts 210°
2026-04-25 13:38 -6.81097 54.36162 38535 ft 507 kts 210°
2026-04-25 13:38 -6.84202 54.34480 38637 ft 508 kts 210°
2026-04-25 13:38 -6.87316 54.32794 38816 ft 508 kts 210°
2026-04-25 13:39 -6.90425 54.31111 38968 ft 507 kts 210°
2026-04-25 13:39 -6.93530 54.29430 39122 ft 507 kts 210°
2026-04-25 13:39 -6.96634 54.27749 39282 ft 506 kts 210°
2026-04-25 13:39 -6.99733 54.26070 39421 ft 506 kts 210°
2026-04-25 13:40 -7.02828 54.24393 39573 ft 505 kts 210°
2026-04-25 13:40 -7.05925 54.22715 39704 ft 505 kts 210°
2026-04-25 13:40 -7.09020 54.21037 39828 ft 505 kts 210°
2026-04-25 13:41 -7.15223 54.17675 39859 ft 505 kts 210°
2026-04-25 13:41 -7.21421 54.14314 39861 ft 505 kts 210°
2026-04-25 13:42 -7.27589 54.10967 39859 ft 505 kts 210°
2026-04-25 13:42 -7.33743 54.07592 39858 ft 505 kts 211°
2026-04-25 13:43 -7.39920 54.04189 39859 ft 505 kts 211°
2026-04-25 13:43 -7.46107 54.00784 39860 ft 505 kts 211°
2026-04-25 13:44 -7.52240 53.97413 39858 ft 504 kts 211°
2026-04-25 13:44 -7.58403 53.94025 39859 ft 503 kts 211°
2026-04-25 13:45 -7.64517 53.90663 39858 ft 503 kts 211°
2026-04-25 13:45 -7.70672 53.87277 39859 ft 503 kts 211°
2026-04-25 13:46 -7.76805 53.83902 39860 ft 503 kts 211°
2026-04-25 13:46 -7.82957 53.80515 39864 ft 503 kts 211°
2026-04-25 13:47 -7.89115 53.77124 39862 ft 503 kts 211°
2026-04-25 13:47 -7.95224 53.73759 39862 ft 503 kts 211°
2026-04-25 13:48 -8.01373 53.70371 39861 ft 502 kts 211°
2026-04-25 13:48 -8.07471 53.67009 39863 ft 502 kts 211°
2026-04-25 13:49 -8.13610 53.63624 39859 ft 502 kts 211°
2026-04-25 13:49 -8.19721 53.60253 39861 ft 502 kts 211°
2026-04-25 13:50 -8.25857 53.56867 39862 ft 502 kts 211°
2026-04-25 13:50 -8.31983 53.53486 39860 ft 501 kts 211°
2026-04-25 13:51 -8.38067 53.50125 39860 ft 501 kts 211°
2026-04-25 13:51 -8.44172 53.46753 39860 ft 500 kts 211°
2026-04-25 13:52 -8.50306 53.43363 39863 ft 500 kts 211°
2026-04-25 13:52 -8.56396 53.39997 39863 ft 500 kts 212°
2026-04-25 13:53 -8.62488 53.36628 39866 ft 500 kts 212°
2026-04-25 13:53 -8.68611 53.33240 39866 ft 500 kts 212°
2026-04-25 13:54 -8.74728 53.29855 39865 ft 500 kts 212°
2026-04-25 13:54 -8.80811 53.26487 39863 ft 500 kts 212°
2026-04-25 13:55 -8.86928 53.23099 39862 ft 501 kts 212°
2026-04-25 13:55 -8.93013 53.19727 39865 ft 501 kts 212°
2026-04-25 13:56 -8.99143 53.16329 39864 ft 501 kts 212°
2026-04-25 13:56 -9.05235 53.12952 39864 ft 501 kts 212°
2026-04-25 13:57 -9.11358 53.09556 39867 ft 501 kts 212°
2026-04-25 13:57 -9.17495 53.06150 39866 ft 501 kts 212°
2026-04-25 13:58 -9.23586 53.02768 39869 ft 501 kts 212°
2026-04-25 13:58 -9.29672 52.99388 39872 ft 501 kts 212°
2026-04-25 13:59 -9.35812 52.95977 39871 ft 502 kts 212°
2026-04-25 13:59 -9.41941 52.92571 39870 ft 501 kts 212°
2026-04-25 14:00 -9.48039 52.89180 39870 ft 501 kts 212°
2026-04-25 14:00 -9.54162 52.85774 39872 ft 501 kts 212°
2026-04-25 14:01 -9.60288 52.82365 39871 ft 501 kts 212°
2026-04-25 14:01 -9.66367 52.78980 39875 ft 501 kts 212°
2026-04-25 14:02 -9.72485 52.75573 39876 ft 500 kts 212°
2026-04-25 14:02 -9.78567 52.72184 39876 ft 501 kts 212°
2026-04-25 14:03 -9.84686 52.68773 39876 ft 501 kts 212°
2026-04-25 14:03 -9.90770 52.65380 39876 ft 501 kts 212°
2026-04-25 14:04 -9.96887 52.61968 39879 ft 500 kts 212°
2026-04-25 14:04 -10.03006 52.58554 39881 ft 500 kts 212°
2026-04-25 14:05 -10.09071 52.55169 39881 ft 500 kts 212°
2026-04-25 14:05 -10.15184 52.51756 39882 ft 500 kts 212°
2026-04-25 14:06 -10.21284 52.48349 39880 ft 500 kts 212°
2026-04-25 14:06 -10.27385 52.44941 39881 ft 500 kts 212°
2026-04-25 14:07 -10.33443 52.41555 39875 ft 499 kts 212°
2026-04-25 14:07 -10.39535 52.38148 39878 ft 499 kts 212°
2026-04-25 14:08 -10.45601 52.34753 39885 ft 499 kts 212°
2026-04-25 14:08 -10.51691 52.31346 39885 ft 498 kts 213°
2026-04-25 14:09 -10.57768 52.27943 39884 ft 497 kts 213°
2026-04-25 14:09 -10.63788 52.24569 39887 ft 496 kts 213°
2026-04-25 14:10 -10.69844 52.21175 39888 ft 496 kts 213°
2026-04-25 14:10 -10.75887 52.17787 39889 ft 496 kts 213°
2026-04-25 14:11 -10.81923 52.14401 39886 ft 494 kts 213°
2026-04-25 14:11 -10.87906 52.11042 39887 ft 494 kts 213°
2026-04-25 14:12 -10.93939 52.07654 39887 ft 494 kts 213°
2026-04-25 14:12 -10.99933 52.04286 39886 ft 493 kts 213°
2026-04-25 14:13 -11.05952 52.00904 39884 ft 492 kts 213°
2026-04-25 14:13 -11.11918 51.97549 39889 ft 492 kts 213°
2026-04-25 14:14 -11.17909 51.94179 39889 ft 491 kts 213°
2026-04-25 14:14 -11.23873 51.90821 39889 ft 492 kts 213°
2026-04-25 14:15 -11.29870 51.87443 39889 ft 491 kts 213°
2026-04-25 14:15 -11.35818 51.84093 39889 ft 490 kts 213°
2026-04-25 14:16 -11.41794 51.80725 39896 ft 489 kts 213°
2026-04-25 14:16 -11.47754 51.77363 39894 ft 489 kts 213°
2026-04-25 14:17 -11.53688 51.74015 39895 ft 489 kts 213°
2026-04-25 14:17 -11.59651 51.70649 39895 ft 489 kts 213°
2026-04-25 14:18 -11.65594 51.67293 39895 ft 489 kts 213°
2026-04-25 14:18 -11.71524 51.63945 39895 ft 489 kts 213°
2026-04-25 14:19 -11.77497 51.60574 39895 ft 489 kts 213°
2026-04-25 14:19 -11.83427 51.57226 39897 ft 488 kts 213°
2026-04-25 14:20 -11.89381 51.53864 39892 ft 488 kts 212°
2026-04-25 14:20 -11.95329 51.50502 39897 ft 488 kts 213°
2026-04-25 14:21 -12.06966 51.43920 39903 ft 487 kts 212°
2026-04-25 14:22 -12.12899 51.40562 39897 ft 487 kts 212°
2026-04-25 14:22 -12.18826 51.37209 39894 ft 487 kts 212°
2026-04-25 14:23 -12.24752 51.33853 39910 ft 487 kts 212°
2026-04-25 14:23 -12.30679 51.30496 39902 ft 487 kts 212°
2026-04-25 14:24 -12.36608 51.27137 39899 ft 487 kts 212°
2026-04-25 14:24 -12.42536 51.23775 39899 ft 487 kts 212°
2026-04-25 14:25 -12.48464 51.20413 39902 ft 487 kts 212°
2026-04-25 14:25 -12.54392 51.17048 39904 ft 487 kts 212°
2026-04-25 14:26 -12.60323 51.13680 39915 ft 487 kts 212°
2026-04-25 14:26 -12.66243 51.10317 39909 ft 487 kts 212°
2026-04-25 14:27 -12.72163 51.06951 39902 ft 486 kts 212°
2026-04-25 14:27 -12.78038 51.03609 39911 ft 486 kts 212°
2026-04-25 14:28 -12.83954 51.00242 39906 ft 486 kts 212°
2026-04-25 14:28 -12.89866 50.96876 39913 ft 486 kts 212°
2026-04-25 14:29 -12.95776 50.93509 39909 ft 486 kts 212°
2026-04-25 14:29 -13.01680 50.90144 39906 ft 486 kts 212°
2026-04-25 14:30 -13.07585 50.86776 39913 ft 486 kts 212°
2026-04-25 14:30 -13.16441 50.81721 39922 ft 486 kts 212°
2026-04-25 14:31 -13.22349 50.78347 39919 ft 486 kts 212°
2026-04-25 14:31 -13.28250 50.74975 39921 ft 486 kts 212°
2026-04-25 14:32 -13.34113 50.71623 39919 ft 486 kts 212°
2026-04-25 14:32 -13.40019 50.68243 39921 ft 486 kts 212°
2026-04-25 14:33 -13.45923 50.64864 39922 ft 486 kts 212°
2026-04-25 14:33 -13.51825 50.61484 39926 ft 486 kts 212°
2026-04-25 14:34 -13.57724 50.58103 39926 ft 486 kts 212°
2026-04-25 14:34 -13.63627 50.54718 39921 ft 485 kts 212°
2026-04-25 14:35 -13.69525 50.51336 39924 ft 485 kts 211°
2026-04-25 14:35 -13.75386 50.47967 39918 ft 485 kts 212°
2026-04-25 14:36 -13.80299 50.45142 39924 ft 485 kts 212°
2026-04-25 14:36 -13.86188 50.41754 39937 ft 485 kts 212°
2026-04-25 14:37 -13.92076 50.38365 39933 ft 484 kts 211°
2026-04-25 14:37 -13.97952 50.34983 39936 ft 484 kts 212°
2026-04-25 14:38 -14.03830 50.31596 39937 ft 484 kts 211°
2026-04-25 14:38 -14.09703 50.28211 39939 ft 484 kts 211°
2026-04-25 14:39 -14.15581 50.24821 39935 ft 484 kts 211°
2026-04-25 14:39 -14.21455 50.21431 39945 ft 484 kts 212°
2026-04-25 14:40 -14.27334 50.18036 39949 ft 484 kts 211°
2026-04-25 14:40 -14.33235 50.14684 39951 ft 485 kts 211°
2026-04-25 14:41 -14.39170 50.11377 39957 ft 484 kts 210°
2026-04-25 14:41 -14.45098 50.08070 39942 ft 484 kts 210°
2026-04-25 14:42 -14.50015 50.05317 39956 ft 484 kts 210°
2026-04-25 14:42 -14.56926 50.01439 39954 ft 484 kts 211°
2026-04-25 14:43 -14.62801 49.98139 39958 ft 484 kts 211°
2026-04-25 14:43 -14.68713 49.94816 39970 ft 484 kts 211°
2026-04-25 14:44 -14.74623 49.91492 39975 ft 484 kts 211°
2026-04-25 14:44 -14.80528 49.88169 39990 ft 483 kts 211°
2026-04-25 14:45 -14.86432 49.84846 39998 ft 483 kts 211°
2026-04-25 14:45 -14.92330 49.81523 39999 ft 483 kts 211°
2026-04-25 14:46 -14.98227 49.78199 40016 ft 482 kts 211°
2026-04-25 14:46 -15.04112 49.74857 40015 ft 482 kts 212°
2026-04-25 14:47 -15.08958 49.72009 40019 ft 482 kts 212°
2026-04-25 14:47 -15.15758 49.67982 40022 ft 482 kts 212°
2026-04-25 14:48 -15.21583 49.64549 40023 ft 482 kts 212°
2026-04-25 14:48 -15.27409 49.61125 40024 ft 481 kts 212°
2026-04-25 14:49 -15.33239 49.57698 40030 ft 482 kts 212°
2026-04-25 14:49 -15.39026 49.54294 40023 ft 482 kts 212°
2026-04-25 14:50 -15.44851 49.50866 40025 ft 481 kts 212°
2026-04-25 14:50 -15.50673 49.47437 40026 ft 481 kts 212°
2026-04-25 14:51 -15.56493 49.44006 40026 ft 481 kts 212°
2026-04-25 14:51 -15.62317 49.40570 40028 ft 481 kts 212°
2026-04-25 14:52 -15.68136 49.37136 40029 ft 481 kts 212°
2026-04-25 14:52 -15.73014 49.34255 40026 ft 481 kts 212°
2026-04-25 14:53 -15.79782 49.30255 40027 ft 481 kts 212°
2026-04-25 14:53 -15.85601 49.26814 40021 ft 481 kts 212°
2026-04-25 14:54 -15.91418 49.23371 40018 ft 481 kts 212°
2026-04-25 14:54 -15.97235 49.19926 40017 ft 481 kts 212°
2026-04-25 14:55 -16.03056 49.16478 40012 ft 481 kts 212°
2026-04-25 14:55 -16.08894 49.13062 40015 ft 481 kts 212°
2026-04-25 14:56 -16.14730 49.09662 40015 ft 481 kts 212°
2026-04-25 14:56 -16.20567 49.06256 40017 ft 481 kts 212°
2026-04-25 14:57 -16.26392 49.02850 40018 ft 480 kts 212°
2026-04-25 14:57 -16.32178 48.99463 40021 ft 480 kts 212°
2026-04-25 14:58 -16.37992 48.96057 40028 ft 480 kts 212°
2026-04-25 14:58 -16.43809 48.92648 40028 ft 479 kts 212°
2026-04-25 14:59 -16.49619 48.89240 40032 ft 479 kts 212°
2026-04-25 14:59 -16.55434 48.85827 40034 ft 479 kts 212°
2026-04-25 15:00 -16.61243 48.82415 40036 ft 479 kts 212°
2026-04-25 15:00 -16.66896 48.78750 40037 ft 477 kts 217°
2026-04-25 15:01 -16.72362 48.74819 40034 ft 477 kts 217°
2026-04-25 15:01 -16.77859 48.70927 40034 ft 477 kts 217°
2026-04-25 15:02 -16.83357 48.67061 40034 ft 476 kts 216°
2026-04-25 15:02 -16.88859 48.63197 40031 ft 476 kts 216°
2026-04-25 15:03 -16.94355 48.59337 40031 ft 476 kts 217°
2026-04-25 15:03 -16.99816 48.55500 40026 ft 476 kts 217°
2026-04-25 15:04 -17.05299 48.51645 40026 ft 475 kts 217°
2026-04-25 15:04 -17.10783 48.47786 40020 ft 475 kts 217°
2026-04-25 15:05 -17.16263 48.43929 40020 ft 475 kts 217°
2026-04-25 15:06 -17.24478 48.38139 40012 ft 474 kts 217°
2026-04-25 15:06 -17.29945 48.34283 40020 ft 473 kts 217°
2026-04-25 15:07 -17.35404 48.30430 40022 ft 473 kts 217°
2026-04-25 15:07 -17.40866 48.26571 40032 ft 474 kts 217°
2026-04-25 15:08 -17.46318 48.22717 40031 ft 473 kts 217°
2026-04-25 15:08 -17.51766 48.18863 40027 ft 472 kts 217°
2026-04-25 15:09 -17.57209 48.15010 40037 ft 472 kts 217°
2026-04-25 15:09 -17.65376 48.09223 40050 ft 472 kts 217°
2026-04-25 15:10 -17.70815 48.05366 40048 ft 472 kts 217°
2026-04-25 15:11 -17.78960 47.99583 40065 ft 472 kts 217°
2026-04-25 15:11 -17.84395 47.95721 40081 ft 472 kts 217°
2026-04-25 15:12 -17.92517 47.89946 39686 ft 466 kts 218°
2026-04-25 15:12 -17.95206 47.88031 38921 ft 469 kts 218°
2026-04-25 15:12 -17.96085 47.87405 38647 ft 471 kts 218°
2026-04-25 15:13 -18.00622 47.84170 37090 ft 479 kts 217°
2026-04-25 15:13 -18.06176 47.80210 35358 ft 486 kts 217°
2026-04-25 15:13 -18.08974 47.78216 34833 ft 482 kts 217°
2026-04-25 15:14 -18.11716 47.76263 34598 ft 471 kts 217°
2026-04-25 15:14 -18.14405 47.74345 34386 ft 465 kts 217°
2026-04-25 15:14 -18.17078 47.72436 34160 ft 464 kts 217°
2026-04-25 15:14 -18.19747 47.70530 33900 ft 463 kts 216°
2026-04-25 15:15 -18.22408 47.68628 33648 ft 462 kts 216°
2026-04-25 15:15 -18.25060 47.66732 33415 ft 460 kts 216°
2026-04-25 15:15 -18.27706 47.64840 33155 ft 458 kts 216°
2026-04-25 15:15 -18.30335 47.62961 32897 ft 456 kts 216°
2026-04-25 15:16 -18.32950 47.61090 32668 ft 454 kts 216°
2026-04-25 15:16 -18.35555 47.59225 32422 ft 452 kts 216°
2026-04-25 15:16 -18.40663 47.55379 32080 ft 450 kts 223°
2026-04-25 15:17 -18.44632 47.50390 31832 ft 444 kts 241°
2026-04-25 15:17 -18.45932 47.47456 31727 ft 442 kts 251°
2026-04-25 15:17 -18.46729 47.44341 31620 ft 441 kts 260°
2026-04-25 15:18 -18.47012 47.41138 31497 ft 439 kts 269°
2026-04-25 15:18 -18.45967 47.34838 31245 ft 440 kts 290°
2026-04-25 15:18 -18.44648 47.31932 31136 ft 441 kts 299°
2026-04-25 15:19 -18.42872 47.29296 31024 ft 443 kts 309°
2026-04-25 15:19 -18.42204 47.28513 30970 ft 443 kts 312°
2026-04-25 15:19 -18.38092 47.25201 30775 ft 448 kts 329°
2026-04-25 15:19 -18.35235 47.23876 30657 ft 451 kts 339°
2026-04-25 15:20 -18.32184 47.23095 30537 ft 453 kts 349°
2026-04-25 15:20 -18.29027 47.22896 30415 ft 456 kts
2026-04-25 15:20 -18.25879 47.23325 30305 ft 458 kts 11°
2026-04-25 15:20 -18.22844 47.24372 30182 ft 460 kts 22°
2026-04-25 15:21 -18.20027 47.25983 30049 ft 462 kts 31°
2026-04-25 15:21 -18.17395 47.27921 29911 ft 462 kts 35°
2026-04-25 15:21 -18.14867 47.29940 29774 ft 462 kts 36°
2026-04-25 15:21 -18.12313 47.32071 29631 ft 462 kts 37°
2026-04-25 15:22 -18.09836 47.34148 29491 ft 462 kts 39°
2026-04-25 15:22 -18.07559 47.36529 29373 ft 463 kts 49°
2026-04-25 15:22 -18.05711 47.39291 29236 ft 463 kts 61°
2026-04-25 15:22 -18.04397 47.42372 29090 ft 463 kts 71°
2026-04-25 15:23 -18.03662 47.45656 28972 ft 462 kts 83°
2026-04-25 15:23 -18.03482 47.49011 28834 ft 460 kts 92°
2026-04-25 15:23 -18.03892 47.52327 28709 ft 458 kts 104°
2026-04-25 15:23 -18.04863 47.55500 28574 ft 455 kts 114°
2026-04-25 15:24 -18.06327 47.58424 28330 ft 450 kts 125°
2026-04-25 15:24 -18.08264 47.60980 28077 ft 446 kts 136°
2026-04-25 15:24 -18.10603 47.63090 27765 ft 441 kts 147°
2026-04-25 15:24 -18.11458 47.63701 27543 ft 441 kts 150°
2026-04-25 15:25 -18.16102 47.65879 26305 ft 441 kts 166°
2026-04-25 15:25 -18.19101 47.66458 25694 ft 436 kts 177°
2026-04-25 15:25 -18.22115 47.66416 25153 ft 431 kts 188°
2026-04-25 15:25 -18.25031 47.65753 24616 ft 427 kts 199°
2026-04-25 15:26 -18.26852 47.64986 24246 ft 425 kts 206°
2026-04-25 15:26 -18.30220 47.62861 23573 ft 420 kts 213°
2026-04-25 15:26 -18.31830 47.61741 23154 ft 418 kts 213°
2026-04-25 15:26 -18.34246 47.60058 22521 ft 415 kts 213°
2026-04-25 15:27 -18.36653 47.58393 21916 ft 413 kts 212°
2026-04-25 15:27 -18.38969 47.56618 21208 ft 413 kts 223°
2026-04-25 15:27 -18.42885 47.52229 20052 ft 409 kts 226°
2026-04-25 15:28 -18.44800 47.50018 19423 ft 406 kts 226°
2026-04-25 15:28 -18.46686 47.47843 18731 ft 396 kts 225°
2026-04-25 15:28 -18.48517 47.45733 18162 ft 382 kts 226°
2026-04-25 15:28 -18.50262 47.43724 17672 ft 372 kts 225°
2026-04-25 15:29 -18.52009 47.41714 17196 ft 368 kts 226°
2026-04-25 15:29 -18.53733 47.39732 16724 ft 364 kts 225°
2026-04-25 15:29 -18.55440 47.37768 16278 ft 361 kts 226°
2026-04-25 15:29 -18.57125 47.35828 15818 ft 357 kts 226°
2026-04-25 15:30 -18.58777 47.33928 15372 ft 354 kts 226°
2026-04-25 15:30 -18.60432 47.32021 14933 ft 350 kts 226°
2026-04-25 15:30 -18.62067 47.30139 14498 ft 346 kts 226°
2026-04-25 15:30 -18.63666 47.28295 14326 ft 334 kts 226°
2026-04-25 15:31 -18.65199 47.26526 14093 ft 315 kts 226°
2026-04-25 15:31 -18.66673 47.24957 13817 ft 294 kts 218°
2026-04-25 15:31 -18.68336 47.23859 13553 ft 273 kts 201°
2026-04-25 15:31 -18.70100 47.23324 13311 ft 255 kts 190°
2026-04-25 15:32 -18.71821 47.23018 12903 ft 247 kts 188°
2026-04-25 15:32 -18.73510 47.22767 12414 ft 242 kts 184°
2026-04-25 15:32 -18.75109 47.23202 11827 ft 241 kts 146°
2026-04-25 15:33 -18.76549 47.26201 11209 ft 226 kts 99°
2026-04-25 15:33 -18.76700 47.27784 10930 ft 209 kts 100°
2026-04-25 15:33 -18.76914 47.29295 10360 ft 208 kts 102°
2026-04-25 15:33 -18.77135 47.30781 10039 ft 205 kts 103°
2026-04-25 15:34 -18.77377 47.32343 9959 ft 223 kts 103°
2026-04-25 15:34 -18.77631 47.33988 9344 ft 231 kts 101°
2026-04-25 15:34 -18.77886 47.35675 8572 ft 228 kts 102°
2026-04-25 15:34 -18.78044 47.36735 8333 ft 213 kts 101°
2026-04-25 15:35 -18.78565 47.40267 7271 ft 224 kts 100°
2026-04-25 15:35 -18.78814 47.41935 7074 ft 236 kts 100°
2026-04-25 15:35 -18.79071 47.43667 6994 ft 239 kts 100°
2026-04-25 15:36 -18.79583 47.47093 6998 ft 233 kts 100°
2026-04-25 15:36 -18.79836 47.48779 7005 ft 228 kts 100°
2026-04-25 15:36 -18.80075 47.50408 7001 ft 228 kts 100°
2026-04-25 15:37 -18.80314 47.52059 7001 ft 228 kts 100°
2026-04-25 15:37 -18.80547 47.53712 7002 ft 227 kts 100°
2026-04-25 15:37 -18.80776 47.55379 6994 ft 226 kts 99°
2026-04-25 15:37 -18.80583 47.57008 7018 ft 231 kts 73°
2026-04-25 15:38 -18.80268 47.58653 6996 ft 228 kts 96°
2026-04-25 15:38 -18.80525 47.60263 6990 ft 227 kts 96°
2026-04-25 15:38 -18.80086 47.61851 7006 ft 235 kts 56°
2026-04-25 15:38 -18.78754 47.62836 6998 ft 241 kts 18°
2026-04-25 15:39 -18.77064 47.62891 7005 ft 246 kts 358°
2026-04-25 15:39 -18.75454 47.62498 7011 ft 230 kts 338°
2026-04-25 15:39 -18.74241 47.61510 7014 ft 218 kts 306°
2026-04-25 15:39 -18.73649 47.60066 7005 ft 214 kts 283°
2026-04-25 15:40 -18.73072 47.58611 7008 ft 217 kts 303°
2026-04-25 15:40 -18.72536 47.57727 6996 ft 216 kts 302°
2026-04-25 15:40 -18.71463 47.55902 7006 ft 219 kts 300°
2026-04-25 15:40 -18.70715 47.54530 6998 ft 217 kts 298°
2026-04-25 15:41 -18.70114 47.53077 7001 ft 216 kts 282°
2026-04-25 15:41 -18.69847 47.51531 7001 ft 215 kts 276°
2026-04-25 15:41 -18.69674 47.49963 7001 ft 215 kts 274°
2026-04-25 15:41 -18.69532 47.48395 6996 ft 214 kts 273°
2026-04-25 15:42 -18.69400 47.46829 7000 ft 214 kts 273°
2026-04-25 15:42 -18.69276 47.45286 6991 ft 212 kts 272°
2026-04-25 15:42 -18.69153 47.43722 7006 ft 214 kts 272°
2026-04-25 15:42 -18.69030 47.42155 6994 ft 215 kts 272°
2026-04-25 15:43 -18.68910 47.40585 7004 ft 214 kts 272°
2026-04-25 15:43 -18.68790 47.39029 6996 ft 213 kts 272°
2026-04-25 15:43 -18.68670 47.37457 6999 ft 216 kts 273°
2026-04-25 15:43 -18.68551 47.35903 6983 ft 214 kts 273°
2026-04-25 15:44 -18.68429 47.34328 6994 ft 215 kts 273°
2026-04-25 15:44 -18.68306 47.32748 6993 ft 216 kts 274°
2026-04-25 15:44 -18.68197 47.31164 6995 ft 217 kts 273°
2026-04-25 15:44 -18.68084 47.29581 6987 ft 214 kts 273°
2026-04-25 15:45 -18.67972 47.28026 6992 ft 214 kts 273°
2026-04-25 15:45 -18.67861 47.26456 6983 ft 215 kts 273°
2026-04-25 15:45 -18.67748 47.24869 6988 ft 218 kts 273°
2026-04-25 15:45 -18.67677 47.23815 6978 ft 216 kts 272°
2026-04-25 15:46 -18.67524 47.21722 6975 ft 216 kts 274°
2026-04-25 15:46 -18.67417 47.20154 6967 ft 214 kts 273°
2026-04-25 15:46 -18.67306 47.18586 6973 ft 214 kts 274°
2026-04-25 15:46 -18.67385 47.17031 6956 ft 213 kts 250°
2026-04-25 15:47 -18.68201 47.15771 6967 ft 208 kts 214°
2026-04-25 15:47 -18.69462 47.15155 6991 ft 190 kts 191°
2026-04-25 15:47 -18.70705 47.14908 6989 ft 178 kts 178°
2026-04-25 15:47 -18.71933 47.14892 6977 ft 177 kts 176°
2026-04-25 15:48 -18.73162 47.14928 6976 ft 177 kts 174°
2026-04-25 15:48 -18.74328 47.15240 6972 ft 175 kts 141°
2026-04-25 15:48 -18.74936 47.16301 6995 ft 170 kts 107°
2026-04-25 15:48 -18.75193 47.17508 6976 ft 168 kts 100°
2026-04-25 15:49 -18.75382 47.18729 6976 ft 169 kts 99°
2026-04-25 15:49 -18.75561 47.19955 6977 ft 170 kts 99°
2026-04-25 15:49 -18.75743 47.21193 6987 ft 171 kts 100°
2026-04-25 15:49 -18.75927 47.22426 6986 ft 170 kts 100°
2026-04-25 15:50 -18.76111 47.23655 6991 ft 169 kts 100°
2026-04-25 15:50 -18.76291 47.24856 6986 ft 168 kts 100°
2026-04-25 15:50 -18.76472 47.26081 6995 ft 169 kts 99°
2026-04-25 15:50 -18.76650 47.27280 6991 ft 159 kts 99°
2026-04-25 15:51 -18.76810 47.28382 7005 ft 146 kts 100°
2026-04-25 15:51 -18.76911 47.29075 7006 ft 143 kts 100°
2026-04-25 15:51 -18.77117 47.30471 7008 ft 145 kts 99°
2026-04-25 15:51 -18.77272 47.31522 6975 ft 146 kts 100°
2026-04-25 15:52 -18.77429 47.32586 6795 ft 147 kts 100°
2026-04-25 15:52 -18.77585 47.33638 6592 ft 144 kts 99°
2026-04-25 15:52 -18.77739 47.34681 6391 ft 143 kts 99°
2026-04-25 15:52 -18.77890 47.35710 6204 ft 141 kts 99°
2026-04-25 15:53 -18.78040 47.36719 6013 ft 137 kts 98°
2026-04-25 15:53 -18.78185 47.37706 5846 ft 136 kts 98°
2026-04-25 15:53 -18.78331 47.38696 5657 ft 138 kts 98°
2026-04-25 15:53 -18.78481 47.39705 5468 ft 140 kts 101°
2026-04-25 15:54 -18.78631 47.40716 5306 ft 139 kts 100°
2026-04-25 15:54 -18.78779 47.41717 5087 ft 136 kts 98°
2026-04-25 15:54 -18.78924 47.42710 4933 ft 139 kts 100°
2026-04-25 15:54 -18.79076 47.43723 4726 ft 140 kts 98°
2026-04-25 15:55 -18.79225 47.44745 4560 ft 142 kts 101°
2026-04-25 15:55 -18.79374 47.45794 4343 ft 144 kts 99°
2026-04-25 15:55 -18.79526 47.46836 4183 ft 140 kts 100°
2026-04-25 15:55 -18.79660 47.47663 4170 ft 62 kts 98°
2026-04-25 15:56 -18.79704 47.47966 4170 ft 38 kts 98°
2026-04-25 15:56 -18.79733 47.48091 4170 ft 9 kts 132°
2026-04-25 15:56 -18.79782 47.48117 4170 ft 7 kts 172°
2026-04-25 15:56 -18.79826 47.48114 4171 ft 6 kts 190°
2026-04-25 15:57 -18.79866 47.48106 4171 ft 6 kts 190°
2026-04-25 15:57 -18.79897 47.48083 4172 ft 5 kts 241°
2026-04-25 15:57 -18.79899 47.48045 4172 ft 6 kts 274°
2026-04-25 15:57 -18.79910 47.48007 4172 ft 3 kts 225°
2026-04-25 15:58 -18.79924 47.48005 4172 ft 1 kts 187°
2026-04-25 15:58 -18.79928 47.48005 4172 ft 0 kts 184°
2026-04-25 15:58 -18.79955 47.48003 4172 ft 6 kts 184°
2026-04-25 15:58 -18.79989 47.48000 4172 ft 1 kts 187°
2026-04-25 15:59 -18.79991 47.48000 4172 ft 0 kts 187°
2026-04-25 15:59 -18.79993 47.48000 4172 ft 1 kts 187°
2026-04-25 15:59 -18.80000 47.47999 4172 ft 3 kts 187°
2026-04-25 15:59 -18.80012 47.47997 4172 ft 0 kts 188°